Tracking 28125 objects as of 4-Oct-2023
HD Live streaming from Space Station
objects crossing your sky now

THORAD AGENA D DEB

Track THORAD AGENA D DEB now!
10-day predictions


NORAD ID: 5842
Int'l Code: 1970-025ML
Perigee: 622.3 km
Apogee: 651.8 km
Inclination: 100.0 °
Period: 97.3 minutes
Semi major axis: 7008 km
RCS: 0.026 m2 (small)
Launch date: April 8, 1970
Source: United States (US)
Launch site: AIR FORCE WESTERN TEST RANGE (AFWTR)

Note: This is SATELLITE DEBRIS
Your satellite tracking list
Your tracking list is empty




NASA's NSSDC Master Catalog

Two Line Element Set (TLE):
1 05842U 70025ML  23276.43363705  .00040515  00000-0  53389-2 0  9999
2 05842  99.9995 264.1899 0021071 221.3359 138.6251 14.79804335754978
Source of the keplerian elements: AFSPC